DW1347 Weather Reports


Display with metric or nautical units.
time (UTC)temp
F
wind
direction
speed
MPH
gust
MPH
rain 1hr
in
rain 24hr
in
rain mn
in
humidity
%
barometer
mb
20200804203613 81 284 3.0 5.0 0.00 0.00 0.00 24 1029.0
20200804203110 81 303 0.0 0.0 0.00 0.00 0.00 16 1028.8
20200804202613 81 312 2.0 2.0 0.00 0.00 0.00 15 1029.1
20200804202104 81 327 4.0 5.0 0.00 0.00 0.00 15 1029.4
20200804201601 80 249 2.0 2.0 0.00 0.00 0.00 15 1029.1
20200804201059 80 278 4.0 6.0 0.00 0.00 0.00 14 1029.1
20200804200557 80 280 6.0 8.0 0.00 0.00 0.00 14 1029.5
20200804200050 80 278 4.0 5.0 0.00 0.00 0.00 15 1029.3
20200804195546 80 261 1.0 2.0 0.00 0.00 0.00 16 1029.4
20200804195045 79 278 8.0 10.0 0.00 0.00 0.00 16 1029.7
20200804194544 80 259 1.0 1.0 0.00 0.00 0.00 17 1029.1
20200804194043 80 294 2.0 2.0 0.00 0.00 0.00 17 1029.3
20200804193541 80 254 3.0 3.0 0.00 0.00 0.00 16 1029.3
20200804193037 80 252 4.0 5.0 0.00 0.00 0.00 17 1029.4
20200804192537 80 254 5.0 6.0 0.00 0.00 0.00 17 1029.3
20200804192035 80 240 5.0 6.0 0.00 0.00 0.00 18 1029.5
20200804191530 80 293 5.0 7.0 0.00 0.00 0.00 17 1029.5
20200804191027 80 255 1.0 1.0 0.00 0.00 0.00 18 1029.7
20200804190527 80 292 4.0 5.0 0.00 0.00 0.00 21 1029.4
20200804190023 80 245 1.0 2.0 0.00 0.00 0.00 24 1029.7
20200804185517 79 330 1.0 1.0 0.00 0.00 0.00 26 1029.8
20200804185017 80 337 3.0 3.0 0.00 0.00 0.00 27 1029.9
20200804184515 77 340 1.0 2.0 0.00 0.00 0.00 28 1029.8
20200804184006 77 296 2.0 3.0 0.00 0.00 0.00 31 1030.0
20200804183500 77 255 0.0 1.0 0.00 0.00 0.00 31 1030.0
20200804182957 79 285 9.0 10.0 0.00 0.00 0.00 28 1029.5
20200804182454 79 81 5.0 6.0 0.00 0.00 0.00 19 1029.9
20200804181950 79 257 3.0 3.0 0.00 0.00 0.00 18 1029.8
20200804181448 79 264 2.0 2.0 0.00 0.00 0.00 18 1030.0
20200804180945 79 272 3.0 3.0 0.00 0.00 0.00 20 1029.8
20200804180440 79 263 2.0 3.0 0.00 0.00 0.00 19 1029.7
20200804175934 79 258 3.0 3.0 0.00 0.00 0.00 21 1029.5
20200804175433 79 266 2.0 3.0 0.00 0.00 0.00 21 1029.8
20200804174930 79 278 3.0 3.0 0.00 0.00 0.00 21 1029.5
20200804174427 79 263 1.0 2.0 0.00 0.00 0.00 22 1029.5
20200804173926 79 259 1.0 1.0 0.00 0.00 0.00 21 1029.7
20200804173420 80 355 4.0 5.0 0.00 0.00 0.00 19 1029.3
20200804172917 80 250 0.0 0.0 0.00 0.00 0.00 18 1029.4
20200804172415 80 276 1.0 2.0 0.00 0.00 0.00 18 1029.5
20200804171912 80 134 3.0 5.0 0.00 0.00 0.00 20 1029.7
20200804171419 81 331 5.0 6.0 0.00 0.00 0.00 18 1029.5
20200804170911 80 240 6.0 9.0 0.00 0.00 0.00 18 1029.4
20200804170403 78 265 2.0 2.0 0.00 0.00 0.00 21 1029.5
20200804165902 78 229 1.0 2.0 0.00 0.00 0.00 22 1029.5
20200804165358 79 257 1.0 2.0 0.00 0.00 0.00 21 1029.9
20200804164857 78 259 2.0 2.0 0.00 0.00 0.00 22 1029.5
20200804164355 79 216 3.0 3.0 0.00 0.00 0.00 23 1029.8
20200804163852 80 253 1.0 2.0 0.00 0.00 0.00 21 1029.7
20200804163346 80 257 1.0 2.0 0.00 0.00 0.00 22 1029.5
20200804162841 79 262 0.0 0.0 0.00 0.00 0.00 23 1029.8
20200804162340 78 226 1.0 1.0 0.00 0.00 0.00 26 1029.9
20200804161838 79 256 2.0 2.0 0.00 0.00 0.00 25 1029.5
20200804161336 79 8 3.0 5.0 0.00 0.00 0.00 25 1029.8
20200804160838 80 265 2.0 2.0 0.00 0.00 0.00 26 1029.5
20200804160334 80 10 2.0 2.0 0.00 0.00 0.00 27 1029.7
20200804155833 79 53 1.0 1.0 0.00 0.00 0.00 26 1029.5
20200804155329 80 291 0.0 1.0 0.00 0.00 0.00 29 1029.8
20200804154825 77 297 0.0 0.0 0.00 0.00 0.00 33 1029.5
20200804154323 76 219 0.0 0.0 0.00 0.00 0.00 32 1029.9
20200804153821 74 327 1.0 2.0 0.00 0.00 0.00 34 1029.8
20200804153320 73 15 2.0 2.0 0.00 0.00 0.00 35 1029.9
20200804152815 71 29 0.0 1.0 0.00 0.00 0.00 38 1029.9
20200804152310 70 247 3.0 3.0 0.00 0.00 0.00 40 1029.8
20200804151805 70 358 4.0 6.0 0.00 0.00 0.00 39 1029.9
20200804151301 71 6 5.0 5.0 0.00 0.00 0.00 42 1029.9
20200804150800 71 243 4.0 5.0 0.00 0.00 0.00 44 1029.8
20200804150257 71 276 1.0 1.0 0.00 0.00 0.00 42 1029.8
20200804145755 71 0 2.0 2.0 0.00 0.00 0.00 40 1029.5
20200804145255 70 5 1.0 2.0 0.00 0.00 0.00 43 1029.5
20200804144753 70 47 1.0 1.0 0.00 0.00 0.00 45 1029.7
20200804144252 69 287 0.0 1.0 0.00 0.00 0.00 48 1029.7
20200804143748 67 279 0.0 0.0 0.00 0.00 0.00 50 1029.5
20200804143245 68 285 0.0 1.0 0.00 0.00 0.00 56 1029.3
20200804142740 68 240 0.0 0.0 0.00 0.00 0.00 53 1029.7
20200804142237 68 241 0.0 1.0 0.00 0.00 0.00 52 1029.4
20200804141737 68 220 0.0 0.0 0.00 0.00 0.00 52 1029.5
20200804141236 67 274 0.0 0.0 0.00 0.00 0.00 52 1029.1
20200804140732 66 255 0.0 0.0 0.00 0.00 0.00 53 1029.4
20200804140230 65 252 0.0 0.0 0.00 0.00 0.00 57 1029.4
20200804135729 64 251 0.0 0.0 0.00 0.00 0.00 56 1029.1
20200804135222 63 241 0.0 0.0 0.00 0.00 0.00 59 1029.4
20200804134720 63 241 0.0 0.0 0.00 0.00 0.00 57 1029.4
20200804134215 62 263 0.0 1.0 0.00 0.00 0.00 54 1029.7
20200804133712 60 261 0.0 0.0 0.00 0.00 0.00 62 1029.5
20200804133207 57 266 0.0 0.0 0.00 0.00 0.00 64 1030.0
20200804132704 56 255 0.0 0.0 0.00 0.00 0.00 69 1029.8
20200804132201 56 251 0.0 0.0 0.00 0.00 0.00 70 1029.7
20200804131659 54 215 1.0 1.0 0.00 0.00 0.00 69 1029.9
20200804131156 54 271 0.0 0.0 0.00 0.00 0.00 68 1029.7
20200804130650 55 258 0.0 0.0 0.00 0.00 0.00 72 1029.7
20200804130148 54 260 0.0 0.0 0.00 0.00 0.00 70 1029.8
20200804125647 53 249 0.0 0.0 0.00 0.00 0.00 71 1029.7
20200804125143 52 217 1.0 1.0 0.00 0.00 0.00 72 1029.5
20200804124638 53 270 0.0 1.0 0.00 0.00 0.00 71 1029.4
20200804124132 53 197 1.0 2.0 0.00 0.00 0.00 70 1029.8
20200804123631 53 232 0.0 1.0 0.00 0.00 0.00 70 1029.5
20200804123125 53 222 1.0 1.0 0.00 0.00 0.00 70 1029.4
20200804122626 53 255 0.0 1.0 0.00 0.00 0.00 69 1029.4
20200804122117 52 232 0.0 0.0 0.00 0.00 0.00 72 1029.5
20200804121616 53 218 1.0 1.0 0.00 0.00 0.00 73 1029.7
20200804121113 54 249 0.0 0.0 0.00 0.00 0.00 71 1029.5
20200804120611 53 238 0.0 0.0 0.00 0.00 0.00 71 1029.8
20200804120110 53 201 1.0 2.0 0.00 0.00 0.00 74 1029.4
20200804115608 55 251 1.0 1.0 0.00 0.00 0.00 70 1029.3
20200804115106 54 197 1.0 2.0 0.00 0.00 0.00 71 1029.1
20200804114600 55 284 0.0 1.0 0.00 0.00 0.00 70 1029.5
20200804114058 54 232 0.0 1.0 0.00 0.00 0.00 68 1029.5
20200804113555 55 249 0.0 0.0 0.00 0.00 0.00 70 1029.3
20200804113053 55 249 0.0 0.0 0.00 0.00 0.00 69 1029.4
20200804112554 55 232 0.0 0.0 0.00 0.00 0.00 68 1029.7
20200804112050 55 205 1.0 1.0 0.00 0.00 0.00 69 1029.8
20200804111546 56 254 0.0 0.0 0.00 0.00 0.00 69 1029.7
20200804111044 56 238 1.0 1.0 0.00 0.00 0.00 67 1029.5
20200804110539 56 72 2.0 2.0 0.00 0.00 0.00 69 1029.8
20200804110041 56 249 0.0 0.0 0.00 0.00 0.00 69 1029.7
20200804105538 56 193 1.0 2.0 0.00 0.00 0.00 67 1029.8
20200804105031 56 216 1.0 1.0 0.00 0.00 0.00 69 1029.7
20200804104528 57 244 0.0 0.0 0.00 0.00 0.00 68 1029.9
20200804104022 57 167 2.0 2.0 0.00 0.00 0.00 67 1029.8
20200804103522 57 218 1.0 1.0 0.00 0.00 0.00 67 1029.8
20200804103018 57 218 1.0 1.0 0.00 0.00 0.00 67 1029.7
20200804102514 56 219 1.0 1.0 0.00 0.00 0.00 70 1029.9
20200804102010 57 262 1.0 2.0 0.00 0.00 0.00 66 1029.8
20200804101507 56 171 1.0 2.0 0.00 0.00 0.00 68 1030.4
20200804101005 56 167 2.0 2.0 0.00 0.00 0.00 70 1030.0
20200804100459 57 266 2.0 2.0 0.00 0.00 0.00 68 1029.5
20200804095954 56 170 5.0 5.0 0.00 0.00 0.00 68 1029.7
20200804095452 57 254 1.0 2.0 0.00 0.00 0.00 69 1029.8
20200804094951 58 222 0.0 1.0 0.00 0.00 0.00 66 1029.9
20200804094447 57 200 2.0 2.0 0.00 0.00 0.00 63 1029.5
20200804093944 57 245 0.0 0.0 0.00 0.00 0.00 68 1029.8
20200804093441 56 276 0.0 0.0 0.00 0.00 0.00 67 1029.7
20200804092937 56 256 0.0 0.0 0.00 0.00 0.00 68 1029.8
20200804092433 56 230 1.0 1.0 0.00 0.00 0.00 69 1029.8
20200804091935 56 201 1.0 1.0 0.00 0.00 0.00 70 1030.4
20200804091431 55 254 0.0 0.0 0.00 0.00 0.00 71 1030.7
20200804090924 55 289 0.0 1.0 0.00 0.00 0.00 72 1030.7
20200804090419 55 151 2.0 2.0 0.00 0.00 0.00 71 1030.3
20200804085917 55 224 1.0 1.0 0.00 0.00 0.00 71 1030.4
20200804085410 55 249 0.0 0.0 0.00 0.00 0.00 72 1030.4
20200804084909 55 199 1.0 1.0 0.00 0.00 0.00 73 1030.4
20200804084406 55 271 1.0 2.0 0.00 0.00 0.00 72 1030.9
20200804083906 54 165 2.0 2.0 0.00 0.00 0.00 71 1030.9
20200804083404 53 199 1.0 2.0 0.00 0.00 0.00 75 1031.0
20200804082900 54 258 1.0 1.0 0.00 0.00 0.00 75 1030.9
20200804082354 54 142 3.0 3.0 0.00 0.00 0.00 74 1031.0
20200804081853 53 236 0.0 1.0 0.00 0.00 0.00 74 1031.2
20200804081351 54 290 1.0 1.0 0.00 0.00 0.00 73 1031.3
20200804080847 53 195 2.0 2.0 0.00 0.00 0.00 74 1031.4
20200804080347 53 263 0.0 0.0 0.00 0.00 0.00 73 1031.3
20200804075841 53 204 1.0 1.0 0.00 0.00 0.00 72 1031.4
20200804075340 53 204 1.0 1.0 0.00 0.00 0.00 72 1031.5
20200804074834 53 275 0.0 0.0 0.00 0.00 0.00 74 1031.3
20200804074332 54 258 0.0 0.0 0.00 0.00 0.00 73 1031.2
20200804073828 53 223 0.0 1.0 0.00 0.00 0.00 72 1031.2
20200804073324 53 215 1.0 1.0 0.00 0.00 0.00 73 1031.8
20200804072824 54 299 0.0 1.0 0.00 0.00 0.00 71 1031.5
20200804072320 54 203 1.0 2.0 0.00 0.00 0.00 71 1031.5
20200804071817 55 252 0.0 0.0 0.00 0.00 0.00 69 1031.3
20200804071313 55 239 1.0 1.0 0.00 0.00 0.00 68 1031.5
20200804070808 55 151 1.0 2.0 0.00 0.00 0.00 67 1031.3
20200804070304 55 223 1.0 1.0 0.00 0.00 0.00 69 1031.5
20200804065804 55 265 0.0 0.0 0.00 0.00 0.00 68 1031.5
20200804065300 55 219 1.0 1.0 0.00 0.00 0.00 68 1031.8
20200804064758 55 243 0.0 0.0 0.00 0.00 0.00 69 1031.5
20200804064256 56 270 0.0 0.0 0.00 0.00 0.00 68 1031.4
20200804063755 56 168 2.0 2.0 0.00 0.00 0.00 67 1031.7
20200804063250 56 248 0.0 1.0 0.00 0.00 0.00 67 1031.7
20200804062742 56 247 0.0 0.0 0.00 0.00 0.00 67 1031.8
20200804062240 55 251 0.0 0.0 0.00 0.00 0.00 67 1031.7
20200804061733 55 253 0.0 0.0 0.00 0.00 0.00 68 1031.8
20200804061226 55 205 1.0 1.0 0.00 0.00 0.00 69 1032.2
20200804060725 55 231 0.0 0.0 0.00 0.00 0.00 68 1032.1
20200804060223 55 230 0.0 0.0 0.00 0.00 0.00 68 1032.4
20200804055720 56 285 0.0 1.0 0.00 0.00 0.00 67 1032.1
20200804055211 56 228 0.0 0.0 0.00 0.00 0.00 65 1032.6
20200804054711 55 171 2.0 2.0 0.00 0.00 0.00 68 1032.4
20200804054208 55 251 0.0 0.0 0.00 0.00 0.00 69 1031.9
20200804053708 55 267 0.0 0.0 0.00 0.00 0.00 68 1032.3
20200804053206 56 242 0.0 0.0 0.00 0.00 0.00 66 1031.9
20200804052703 57 253 0.0 1.0 0.00 0.00 0.00 65 1032.1
20200804052203 57 245 0.0 0.0 0.00 0.00 0.00 65 1032.1
20200804051658 57 245 0.0 0.0 0.00 0.00 0.00 65 1032.1
20200804051152 57 261 0.0 0.0 0.00 0.00 0.00 64 1031.7
20200804050650 58 250 0.0 0.0 0.00 0.00 0.00 63 1031.9
20200804050149 59 238 0.0 0.0 0.00 0.00 0.00 63 1031.9
20200804045647 60 255 0.0 0.0 0.00 0.00 0.00 60 1032.1
20200804045143 60 222 1.0 1.0 0.00 0.00 0.00 58 1031.5
20200804044639 61 203 1.0 2.0 0.00 0.00 0.00 56 1031.7
20200804044138 61 210 1.0 1.0 0.00 0.00 0.00 55 1031.7
20200804043637 62 242 0.0 0.0 0.00 0.00 0.00 55 1031.5
20200804043132 63 290 0.0 1.0 0.00 0.00 0.00 55 1031.4
20200804042631 62 231 1.0 1.0 0.00 0.00 0.00 53 1031.3
20200804042124 62 224 1.0 1.0 0.00 0.00 0.00 53 1031.2
20200804041624 63 228 1.0 1.0 0.00 0.00 0.00 53 1030.9
20200804041119 64 246 1.0 1.0 0.00 0.00 0.00 52 1031.0
20200804040616 63 191 3.0 3.0 0.00 0.00 0.00 52 1030.9
20200804040114 64 194 3.0 3.0 0.00 0.00 0.00 52 1031.4
20200804035609 63 187 3.0 3.0 0.00 0.00 0.00 53 1031.4
20200804035106 62 177 1.0 2.0 0.00 0.00 0.00 59 1031.7
20200804034604 63 137 2.0 2.0 0.00 0.00 0.00 61 1031.7
20200804034059 63 254 2.0 3.0 0.00 0.00 0.00 55 1031.5
20200804033553 63 231 0.0 1.0 0.00 0.00 0.00 59 1032.3
20200804033051 62 221 2.0 2.0 0.00 0.00 0.00 58 1032.1
20200804032547 63 270 1.0 1.0 0.00 0.00 0.00 60 1032.1
20200804032044 63 256 0.0 1.0 0.00 0.00 0.00 56 1031.9
20200804031541 64 234 0.0 1.0 0.00 0.00 0.00 55 1031.7
20200804031037 63 203 1.0 1.0 0.00 0.00 0.00 55 1031.5
20200804030535 63 160 2.0 2.0 0.00 0.00 0.00 57 1031.9
20200804030033 63 254 0.0 0.0 0.00 0.00 0.00 56 1031.8
20200804025531 64 238 1.0 1.0 0.00 0.00 0.00 59 1031.7
20200804025026 64 221 1.0 1.0 0.00 0.00 0.00 58 1031.5
20200804024524 64 329 1.0 2.0 0.00 0.00 0.00 56 1031.8
20200804024021 65 306 1.0 3.0 0.00 0.00 0.00 54 1031.8
20200804023521 61 267 4.0 6.0 0.00 0.00 0.00 54 1032.2
20200804023019 61 250 2.0 2.0 0.00 0.00 0.00 58 1031.7
20200804022516 62 248 0.0 1.0 0.00 0.00 0.00 60 1031.0
20200804022012 62 211 1.0 1.0 0.00 0.00 0.00 54 1031.2
20200804021506 63 229 1.0 1.0 0.00 0.00 0.00 54 1030.8
20200804021005 64 257 0.0 1.0 0.00 0.00 0.00 52 1030.7
20200804020459 64 239 0.0 0.0 0.00 0.00 0.00 52 1030.7
20200804015957 63 191 2.0 2.0 0.00 0.00 0.00 52 1030.4
20200804015453 64 266 0.0 0.0 0.00 0.00 0.00 52 1030.5
20200804014949 64 299 0.0 1.0 0.00 0.00 0.00 52 1030.5
20200804014445 64 298 0.0 0.0 0.00 0.00 0.00 51 1030.8
20200804013942 64 254 0.0 0.0 0.00 0.00 0.00 52 1030.8
20200804013439 64 198 1.0 1.0 0.00 0.00 0.00 52 1031.0
20200804012938 65 180 1.0 1.0 0.00 0.00 0.00 52 1031.0
20200804012435 65 145 3.0 3.0 0.00 0.00 0.00 51 1031.2
20200804011930 67 203 1.0 2.0 0.00 0.00 0.00 48 1030.9
20200804011425 68 281 0.0 0.0 0.00 0.00 0.00 50 1030.9
20200804010920 68 239 2.0 2.0 0.00 0.00 0.00 48 1030.7
20200804010417 68 203 1.0 2.0 0.00 0.00 0.00 48 1031.2
20200804005916 68 183 5.0 7.0 0.00 0.00 0.00 50 1030.9
20200804005411 67 240 1.0 1.0 0.00 0.00 0.00 53 1030.8
20200804004913 67 248 0.0 0.0 0.00 0.00 0.00 57 1030.5
20200804004407 67 249 1.0 1.0 0.00 0.00 0.00 56 1031.0
20200804003907 66 155 2.0 3.0 0.00 0.00 0.00 58 1031.0
20200804003404 67 76 0.0 0.0 0.00 0.00 0.00 60 1031.2
20200804002859 67 245 1.0 1.0 0.00 0.00 0.00 56 1031.4
20200804002356 65 235 1.0 1.0 0.00 0.00 0.00 61 1031.3
20200804001851 64 234 1.0 1.0 0.00 0.00 0.00 66 1031.3
20200804001351 62 276 2.0 2.0 0.00 0.00 0.00 70 1031.4
20200804000849 62 265 2.0 2.0 0.00 0.00 0.00 72 1031.4
20200804000347 61 258 1.0 2.0 0.00 0.00 0.00 77 1031.7
20200803235845 60 262 0.0 1.0 0.00 0.00 0.00 76 1031.8
20200803235346 62 207 2.0 3.0 0.00 0.00 0.00 73 1032.8
20200803234839 64 253 2.0 2.0 0.00 0.00 0.00 62 1032.8
20200803234335 65 147 4.0 7.0 0.00 0.00 0.00 58 1032.6
20200803233833 67 223 4.0 6.0 0.00 0.00 0.00 53 1032.4
20200803233328 69 303 4.0 5.0 0.00 0.00 0.00 45 1032.9
20200803232826 69 334 5.0 7.0 0.00 0.00 0.00 42 1032.6
20200803232326 70 235 3.0 3.0 0.00 0.00 0.00 42 1032.2
20200803231823 72 251 6.0 7.0 0.00 0.00 0.00 37 1032.1
20200803231319 73 46 4.0 6.0 0.00 0.00 0.00 35 1031.8
20200803230819 73 266 2.0 3.0 0.00 0.00 0.00 35 1031.4
20200803230313 75 14 2.0 2.0 0.00 0.00 0.00 32 1031.5
20200803225811 76 266 1.0 1.0 0.00 0.00 0.00 30 1031.2
20200803225311 76 283 2.0 5.0 0.00 0.00 0.00 30 1030.9
20200803224806 78 285 5.0 6.0 0.00 0.00 0.00 30 1031.0
20200803224302 78 69 4.0 6.0 0.00 0.00 0.00 28 1031.2
20200803223800 77 11 5.0 6.0 0.00 0.00 0.00 29 1030.9
20200803223256 79 145 7.0 8.0 0.00 0.00 0.00 30 1030.8
20200803222754 79 350 4.0 8.0 0.00 0.00 0.00 31 1030.5
20200803222335 78 71 7.0 9.0 0.00 0.00 0.00 32 1030.7
20200803221747 77 353 5.0 7.0 0.00 0.00 0.00 33 1030.8
20200803221241 78 320 5.0 8.0 0.00 0.00 0.00 30 1030.8
20200803220737 78 290 4.0 6.0 0.00 0.00 0.00 32 1031.0
20200803220236 79 276 2.0 3.0 0.00 0.00 0.00 27 1030.9
20200803215729 78 234 0.0 1.0 0.00 0.00 0.00 28 1031.2
20200803215224 78 262 0.0 1.0 0.00 0.00 0.00 29 1030.9
20200803214723 78 254 1.0 2.0 0.00 0.00 0.00 29 1031.0
20200803214221 76 252 1.0 1.0 0.00 0.00 0.00 30 1030.9
20200803213715 76 254 0.0 1.0 0.00 0.00 0.00 28 1030.9
20200803213212 76 254 0.0 0.0 0.00 0.00 0.00 29 1031.0
20200803212709 76 201 1.0 1.0 0.00 0.00 0.00 28 1030.7
20200803212208 76 186 2.0 3.0 0.00 0.00 0.00 31 1030.5
20200803211716 76 325 2.0 2.0 0.00 0.00 0.00 30 1030.5
20200803211210 77 17 3.0 3.0 0.00 0.00 0.00 32 1030.4
20200803210659 77 273 4.0 5.0 0.00 0.00 0.00 33 1030.5
20200803210156 78 248 0.0 1.0 0.00 0.00 0.00 33 1030.4
20200803205653 75 304 0.0 1.0 0.00 0.00 0.00 37 1030.9
20200803205150 74 315 2.0 2.0 0.00 0.00 0.00 43 1030.9
20200803204647 73 321 5.0 7.0 0.00 0.00 0.00 45 1031.4
20200803204145 73 234 4.0 6.0 0.00 0.00 0.00 45 1031.5